Flag for U.S.A. Weather past 2 weeks in Salinas, California, U.S.A.

Now
67 °F

Sunny.


Feels Like: 67 °F
Forecast: 60 / 81 °F
Wind: 10 mph from Northwest

Location: Salinas Municipal Airport

Current Time: Jul 24, 2014 at 9:20:35 PM

Latest Report: Jul 24, 2014 at 8:53 PM


Visibility: 10 mi

Pressure: 29.88 "Hg

Humidity: 66%

Dew point: 55 °F

Location of SalinasLocation

Historic Weather in Salinas — Graph

°F

Salinas temperature yesterday

Maximum temperature yesterday: 77 °F (at 11:53 AM)
Minimum temperature yesterday: 58 °F (at 5:53 AM)
Average temperature yesterday: 67 °F

Past Weeks' High & Low Weather Summary

 TemperatureHumidityPressure
High77 °F (Jul 23, 11:53 AM)97% (Jul 13, 5:53 AM)30.17 "Hg (Jul 13, 5:53 AM)
Low56 °F (Jul 13, 4:53 AM)48% (Jul 23, 11:53 AM)29.88 "Hg (Jul 24, 7:53 PM)
Average64 °F76%30.02 "Hg
* Reported Jul 9 7:53 PM — Jul 24 7:53 PM, Salinas, Weather by CustomWeather, © 2014

Note: Actual official high and low records may vary slightly from our data, if they occured in-between our weather recording intervals... More about our weather records

Advertising

Salinas weather history for previous 24 hours

 ConditionsComfort  
Time TempWeatherWind HumidityBarometerVisibility
7:53 PM
Jul 24
70 °FSunny.9 mph59%29.88 "Hg10 mi
6:53 PM71 °FSunny.8 mph57%29.89 "Hg10 mi
5:53 PM72 °FSunny.10 mph59%29.89 "Hg10 mi
4:53 PM73 °FSunny.13 mph57%29.90 "Hg10 mi
3:53 PM73 °FSunny.15 mph55%29.91 "Hg10 mi
2:53 PM73 °FSunny.13 mph57%29.93 "Hg10 mi
1:53 PM73 °FSunny.15 mph57%29.95 "Hg10 mi
12:53 PM73 °FSunny.14 mph59%29.97 "Hg10 mi
11:53 AM73 °FSunny.12 mph59%29.99 "Hg10 mi
10:53 AM72 °FSunny.8 mph61%30.01 "Hg10 mi
9:53 AM67 °FSunny.7 mph73%30.03 "Hg10 mi
8:53 AM63 °FLow clouds.5 mph84%30.04 "Hg9 mi
7:53 AM61 °FFog.5 mph90%30.04 "Hg6 mi
6:53 AM60 °FFog.6 mph93%30.04 "Hg5 mi
5:53 AM60 °FPassing clouds.3 mph90%30.04 "Hg10 mi
4:53 AM61 °FClear.3 mph90%30.03 "Hg10 mi
3:53 AM61 °FClear.5 mph90%30.04 "Hg10 mi
2:53 AM62 °FClear.6 mph86%30.06 "Hg10 mi
1:53 AM62 °FClear.7 mph83%30.06 "Hg10 mi
12:53 AM63 °FClear.3 mph81%30.07 "Hg10 mi
11:53 PM
Jul 23
63 °FClear.7 mph81%30.07 "Hg10 mi
10:53 PM64 °FClear.9 mph78%30.06 "Hg10 mi
9:53 PM64 °FClear.10 mph75%30.06 "Hg10 mi
Weather by CustomWeather, © 2014

See weather overviewHow to use our weather pages